Flag for Antigua and Barbuda Weather past 2 weeks in Saint John's, Antigua and Barbuda

Now
82 °F

Passing clouds.


Feels Like: 88 °F
Forecast: N/A
Wind: 6 mph from Southeast

Location: Vc Bird International Antigua Airport

Current Time: Oct 25, 2014 at 7:49:40 PM

Latest Report: Oct 25, 2014 at 7:00 PM


Visibility: N/A

Pressure: 29.89 "Hg

Humidity: 74%

Dew point: 73 °F

Location of Saint John'sLocation

Historic Weather in Saint John's — Graph

°F

Saint John's temperature yesterday

Maximum temperature yesterday: 88 °F (at 2:00 PM)
Minimum temperature yesterday: 79 °F (at 5:00 AM)
Average temperature yesterday: 83 °F

Past Weeks' High & Low Weather Summary

 TemperatureHumidityPressure
High90 °F (Oct 14, 2:00 PM)94% (Oct 11, 3:00 AM)30.04 "Hg (Oct 11, 3:00 AM)
Low73 °F (Oct 17, 6:00 AM)59% (Oct 14, 2:00 PM)29.71 "Hg (Oct 13, 7:00 AM)
Average82 °F75%29.93 "Hg
* Reported Oct 10 6:00 PM — Oct 25 6:00 PM, Saint John's, Weather by CustomWeather, © 2014

Note: Actual official high and low records may vary slightly from our data, if they occured in-between our weather recording intervals... More about our weather records

Advertising

Saint John's weather history for previous 24 hours

 ConditionsComfort  
Time TempWeatherWind HumidityBarometerVisibility
6:00 PM
Oct 25
82 °FPassing clouds.8 mph70%29.86 "HgN/A
5:00 PM84 °FPassing clouds.8 mph70%29.86 "HgN/A
4:00 PM86 °FPassing clouds.9 mph62%29.86 "HgN/A
3:00 PM86 °FPassing clouds.10 mph66%29.86 "HgN/A
2:00 PM86 °FScattered clouds.9 mph70%29.89 "HgN/A
1:00 PM86 °FScattered clouds.12 mph62%29.89 "HgN/A
12:00 PM86 °FScattered clouds.10 mph70%29.92 "HgN/A
11:00 AM86 °FScattered clouds.10 mph66%29.95 "HgN/A
10:00 AM86 °FPartly sunny.9 mph70%29.95 "HgN/A
9:00 AM84 °FScattered clouds.10 mph70%29.95 "HgN/A
8:00 AM82 °FScattered clouds.10 mph74%29.95 "HgN/A
6:00 AM79 °FSprinkles. Passing clouds.5 mph89%29.89 "HgN/A
5:00 AM79 °FPassing clouds.7 mph89%29.89 "HgN/A
3:00 AM82 °FSprinkles. Passing clouds.9 mph74%29.89 "HgN/A
2:00 AM81 °FPassing clouds.9 mph79%29.89 "HgN/A
1:00 AM82 °FPassing clouds.8 mph79%29.89 "HgN/A
12:00 AM82 °FPassing clouds.9 mph74%29.92 "HgN/A
11:00 PM
Oct 24
82 °FPassing clouds.9 mph74%29.92 "HgN/A
10:00 PM82 °FPassing clouds.9 mph74%29.92 "HgN/A
9:00 PM82 °FPassing clouds.8 mph79%29.92 "HgN/A
8:00 PM82 °FPassing clouds.8 mph79%29.92 "HgN/A
7:00 PM82 °FPassing clouds.8 mph74%29.89 "HgN/A
Weather by CustomWeather, © 2014

See weather overviewHow to use our weather pages